Flag for Argentina Weather past 2 weeks in Buenos Aires, Argentina

Now
73 °F

Clear.


Feels Like: 76 °F
Forecast: 69 / 86 °F
Wind: 14 mph from North

Location: Buenos Aires Airport

Current Time: Dec 25, 2014 at 3:35:12 AM

Latest Report: Dec 25, 2014 at 3:00 AM


Visibility: 10 mi

Pressure: 29.92 "Hg

Humidity: 69%

Dew point: 63 °F

Location of Buenos AiresLocation

Historic Weather in Buenos Aires — Graph

°F

Buenos Aires temperature yesterday

Maximum temperature yesterday: 81 °F (at 5:00 PM)
Minimum temperature yesterday: 66 °F (at 5:00 AM)
Average temperature yesterday: 74 °F

Past Weeks' High & Low Weather Summary

 TemperatureHumidityPressure
High90 °F (Dec 19, 3:00 PM)94% (Dec 22, 6:00 AM)30.21 "Hg (Dec 22, 6:00 AM)
Low59 °F (Dec 22, 7:00 AM)29% (Dec 19, 5:00 PM)29.53 "Hg (Dec 19, 5:00 PM)
Average73 °F63%29.91 "Hg
* Reported Dec 10 2:00 AM — Dec 25 2:00 AM, Buenos Aires, Weather by CustomWeather, © 2014

Note: Actual official high and low records may vary slightly from our data, if they occured in-between our weather recording intervals... More about our weather records

Advertising

Buenos Aires weather history for previous 24 hours

 ConditionsComfort  
Time TempWeatherWind HumidityBarometerVisibility
2:00 AM
Dec 25
75 °FClear.15 mph65%29.92 "Hg10 mi
1:00 AM75 °FClear.15 mph69%29.92 "Hg10 mi
12:00 AM75 °FClear.16 mph65%29.92 "Hg10 mi
11:00 PM
Dec 24
77 °FClear.18 mph65%29.92 "Hg10 mi
10:00 PM77 °FClear.17 mph61%29.89 "Hg10 mi
9:00 PM77 °FClear.9 mph65%29.89 "Hg10 mi
8:00 PM77 °FClear.10 mph61%29.89 "Hg10 mi
7:00 PM79 °FPassing clouds.9 mph58%29.89 "HgN/A
6:00 PM81 °FSunny.12 mph48%29.89 "Hg10 mi
5:00 PM81 °FSunny.15 mph51%29.89 "Hg10 mi
4:00 PM79 °FSunny.10 mph45%29.92 "Hg10 mi
3:00 PM79 °FSunny.10 mph48%29.92 "Hg10 mi
2:00 PM79 °FSunny.13 mph48%29.95 "Hg10 mi
1:00 PM77 °FSunny.12 mph51%29.98 "Hg10 mi
12:00 PM77 °FSunny.13 mph57%30.01 "Hg10 mi
11:00 AM73 °FSunny.12 mph65%30.01 "Hg10 mi
10:00 AM72 °FSunny.15 mph53%30.04 "Hg10 mi
9:00 AM72 °FSunny.15 mph57%30.04 "Hg10 mi
8:00 AM68 °FSunny.17 mph60%30.04 "Hg10 mi
7:00 AM68 °FSunny.17 mph60%30.04 "Hg10 mi
6:00 AM66 °FSunny.13 mph68%30.04 "Hg10 mi
5:00 AM66 °FSunny.14 mph60%30.04 "Hg10 mi
4:00 AM68 °FClear.14 mph56%30.01 "Hg10 mi
3:00 AM68 °FClear.15 mph49%30.01 "Hg10 mi
Weather by CustomWeather, © 2014

See weather overviewHow to use our weather pages